SCOUT A DEB, 31407

Orbit data source: Space-Track

SCOUT A DEB, 31407 is space debris in LEO originally from a launch on Thu, 19 May 1966 UTC launched from the Air Force Western Test Range (AFWTR). Debris objects in space refer to the collection of defunct objects orbiting the Earth. Examples of debris include non-operational satellites, rocket bodies, and fragments generated from explosions, collisions, or faulty payload assembly.

Loading next visibility...
Identifier
31407, 1966-041H
Orbit
LEO
Country
Flag of USUS
Related business
Manufacturer
Unknown
Mission
Spacecraft
Bus & Motor
Unknown
Mass
Unknown
Launch date (UTC)
1966-05-19 (59 years ago)
Launch vehicle
Unknown
Launch site
Air Force Western Test Range (AFWTR)
Object type
Payload
Rocket body
Debris
Shape & HBR
Unknown shape, 0.1 m
Radar Cross Section
Small (<0.1 m²)

Expand to show TLE details & history
Last TLE update: 22 hours ago

TLE from 22 hours ago
0 SCOUT A DEB
1 31407U 66041H   25302.63104567  .00004516  00000-0  16768-2 0  9992
2 31407  90.2011  69.5757 0053433 293.0401  66.5166 14.31304202467160
Epoch: 2025-10-29T15:08Z
TLE epoch observation values (Epoch: 2025-10-29T15:08:42.345Z)
Latitude
-0.00006°
Longitude
164.19785°
Altitude
775.358 km
Speed
7.474 km/s
True Right ascension
04h 38m 18s
True Declination
0° 00' 00"
Sunlit
Object was in full shadow at epoch
Visualization orbit readout
Latitude
Unknown
Longitude
Unknown
Altitude
Unknown
Speed
Unknown
Apparent Right ascension
Unknown
Apparent Declination
Unknown
Sunlit
N/A
Visualization observer readout
Local Sidereal Time
09:01:17
Azimuth
Unknown
Elevation
Unknown
Doppler factor
Unknown
Orbital elements
Apogee altitude
822.578 km
Perigee altitude
746.036 km
Semi-major axis
7,162.444 km
Eccentricity
0.00534
Inclination
90.2011°
RAAN
69.5757°
Arg. of periapsis
293.0401°
True anomaly
67.07967°
Mean anomaly
66.5166°
Eccentric anomaly
66.79799°
Mean motion
3.58056 °/min
Orbital period
100.54 mins
BSTAR
0.0016768
Loading maneuver chart data...
Computing Atmospheric mass density...
Loading historical data...
Loading historical data...
Loading historical data...
Loading historical data...
Loading historical data...
Loading historical data...
Loading historical data...

Documentation

Showing up to 5 results
|